Weather History for Omaha Offutt, NE

Change the Weather History Date:

Friday, September 14, 2012

  Actual Average Record
Temperature  
Mean Temperature 60 °F -  
Max Temperature 78 °F 76 °F 91 °F (2004)
Min Temperature 42 °F 55 °F 40 °F (2007)
Degree Days  
Heating Degree Days 5    
Growing Degree Days 10 (Base 50)    
Moisture  
Dew Point 45 °F    
Average Humidity 65    
Maximum Humidity 99    
Minimum Humidity 26    
Precipitation  
Precipitation 0.00 in - - ()
Sea Level Pressure  
Sea Level Pressure 30.33 in    
Wind  
Wind Speed 3 mph (South)    
Max Wind Speed 13 mph    
Max Gust Speed -    
Visibility 10 miles    
Events      
Averages and records for this station are not official NWS values.
T = Trace of Precipitation, MM = Missing Value Source: NWS Daily Summary

Daily Weather History Graph

Daily Weather History Graph

Search for Another Location

Airport:

Trip Planner

Search our weather history database for the weather conditions in past years. The results will help you decide how hot, cold, wet, or windy it might be!

Date:

Astronomy

Sep. 14, 2012 Rise Set
Actual Time 7:03 AM CDT 7:33 PM CDT
Civil Twilight 6:35 AM CDT 8:01 PM CDT
Nautical Twilight 6:03 AM CDT 8:33 PM CDT
Astronomical Twilight 5:29 AM CDT 9:07 PM CDT
Moon 5:28 AM CDT (9/14) 6:30 PM CDT (9/14)
Length of Visible Light 13h 25m
Length of Day
12h 29m
Waning Crescent, 2% of the Moon is Illuminated
Sep 14
Waning Crescent
Sep 15
New
Sep 22
First Quarter
Sep 29
Full
Oct 8
Last Quarter

Hourly Weather History & Observations

Time (CDT) Temp. Dew Point Humidity Pressure Visibility Wind Dir Wind Speed Gust Speed Precip Events Conditions
12:55 AM 52.9 °F 48.9 °F 86% 30.38 in 10.0 mi Calm Calm - N/A   Clear
1:55 AM 52.0 °F 48.4 °F 88% 30.38 in 10.0 mi SSW 3.5 mph - N/A   Clear
2:55 AM 46.0 °F 45.1 °F 97% 30.37 in 10.0 mi Calm Calm - N/A   Clear
3:55 AM 45.3 °F 44.8 °F 98% 30.37 in 10.0 mi Calm Calm - N/A   Clear
4:55 AM 43.9 °F 43.3 °F 98% 30.36 in 10.0 mi Calm Calm - N/A   Clear
5:55 AM 43.0 °F 42.8 °F 99% 30.36 in 10.0 mi Calm Calm - N/A   Clear
6:55 AM 42.6 °F 42.4 °F 99% 30.37 in 10.0 mi Calm Calm - N/A   Clear
7:55 AM 43.9 °F 43.5 °F 99% 30.38 in 10.0 mi Calm Calm - N/A   Clear
8:55 AM 51.6 °F 50.9 °F 97% 30.38 in 10.0 mi SSE 4.6 mph - N/A   Clear
9:55 AM 59.2 °F 50.0 °F 72% 30.38 in 10.0 mi SSE 5.8 mph - N/A   Clear
10:55 AM 66.6 °F 48.9 °F 53% 30.37 in 10.0 mi SW 6.9 mph - N/A   Clear
11:55 AM 72.0 °F 44.2 °F 37% 30.35 in 10.0 mi Calm Calm - N/A   Clear
12:55 PM 74.7 °F 39.9 °F 29% 30.33 in 10.0 mi South 5.8 mph - N/A   Clear
1:55 PM 76.5 °F 41.2 °F 28% 30.32 in 10.0 mi SSW 8.1 mph - N/A   Clear
2:55 PM 77.5 °F 40.6 °F 27% 30.30 in 10.0 mi South 10.4 mph - N/A   Clear
3:55 PM 78.3 °F 40.5 °F 26% 30.28 in 10.0 mi South 10.4 mph - N/A   Clear
4:55 PM 78.1 °F 42.3 °F 28% 30.27 in 10.0 mi South 12.7 mph - N/A   Clear
5:55 PM 77.4 °F 43.3 °F 30% 30.26 in 10.0 mi South 10.4 mph - N/A   Clear
6:55 PM 72.5 °F 44.1 °F 36% 30.27 in 10.0 mi SSE 12.7 mph - N/A   Clear
7:55 PM 65.5 °F 45.3 °F 48% 30.27 in 10.0 mi SSE 8.1 mph - N/A   Clear
8:55 PM 62.8 °F 46.9 °F 56% 30.28 in 10.0 mi Calm Calm - N/A   Clear
9:55 PM 59.0 °F 47.7 °F 66% 30.28 in 10.0 mi Calm Calm - N/A   Clear
10:55 PM 51.1 °F 46.9 °F 86% 30.29 in 10.0 mi Calm Calm - N/A   Clear
11:55 PM 49.3 °F 45.7 °F 87% 30.28 in 10.0 mi Calm Calm - N/A   Clear